• Join FlightAware (Why Join?)
  • Login
  • US Flag 
03:13AM EDT


 

Airport Tracker/Info


-or-


 

Live Flight TrackerFlight Track Log ✈ N52712 ✈ 22-Mar-2014 ✈ KBED - KLWM

Flight Track Log - Related Links

Times and Time Zones

All times are in EDT time to prevent confusion due to time zone crossing. See the N52712 flight status page for this flight to view local times or setup timezone preferences in your user account.

Time Position Orientation Groundspeed Altitude Reporting Facility
EDT Latitude Longitude Course Direction KTS MPH feet Rate Location/Type
08:42AM 42.5000 -71.3333 36° Northeast 119 137 1,700  Level KA90
08:43AM 42.5167 -71.3167 36° Northeast 107 123 2,600 600 Climbing KA90
08:44AM 42.5500 -71.3000 20° North 125 144 3,000 180 Climbing KA90
08:45AM 42.5667 -71.3333 304° West 108 124 3,000  Level KA90
08:46AM 42.5833 -71.3500 324° Northwest 105 121 3,000  Level KA90
08:47AM 42.6167 -71.3833 324° Northwest 101 116 3,000  Level KA90
08:48AM 42.6500 -71.3833 360° North 121 139 3,000  Level KA90
08:49AM 42.6333 -71.3667 144° Southeast 71 82 3,100  Climbing KA90
08:50AM 42.6167 -71.3333 124° Southeast 85 98 3,000 -60 Descending KA90
08:51AM 42.6000 -71.3167 144° Southeast 86 99 3,000  Level KA90
08:52AM 42.6333 -71.3000 20° North 115 132 3,000  Level KA90
08:53AM 42.6500 -71.2833 36° Northeast 113 130 3,000  Level KA90
08:54AM 42.6833 -71.2500 36° Northeast 110 127 3,100 -360 Climbing KA90
08:55AM 42.6667 -71.2500 180° South 84 97 2,300 -600 Descending KA90
08:56AM 42.6500 -71.2667 216° Southwest 69 79 2,000 -180 Descending KA90
08:57AM 42.6333 -71.2833 216° Southwest 61 70 2,000  Level KA90
08:58AM 42.6333 -71.3000 270° West 66 76 2,000  Level KA90
08:59AM 42.6167 -71.2833 144° Southeast 66 76 2,100  Climbing KA90
09:00AM 42.6000 -71.2667 144° Southeast 78 90 2,000 -60 Descending KA90
09:01AM 42.6167 -71.2333 56° Northeast 113 130 2,000 -120 Level KA90
09:02AM 42.6333 -71.2000 56° Northeast 124 143 1,800 -300 Descending KA90
09:03AM 42.6667 -71.1833 20° North 115 132 1,400 -480 Descending KA90
09:04AM 42.6833 -71.1500 56° Northeast 107 123 800 -360 Descending KA90
09:05AM 42.7167 -71.1333 20° North 106 122 700 360 Descending KA90
09:06AM 42.7333 -71.1000 56° Northeast 100 115 1,600 600 Climbing KA90
09:07AM 42.7500 -71.0500 66° East 123 142 2,000 180 Climbing KA90
09:08AM 42.7500 -71.0167 90° East 117 135 2,000  Level KA90
09:09AM 42.7667 -70.9833 56° Northeast 94 108 2,000  Level KA90
09:10AM 42.7833 -70.9500 56° Northeast 94 108 2,100  Climbing KA90
09:11AM 42.8167 -70.9500 360° North 129 148 2,100 -60 Level KA90
09:12AM 42.8333 -70.9667 324° Northwest 118 136 2,000 -120 Descending KA90
09:13AM 42.8333 -71.0000 270° West 76 87 1,900 -60 Descending KA90
09:14AM 42.8333 -71.0167 270° West 62 71 1,900  Level KA90
09:15AM 42.8167 -71.0167 180° South 62 71 1,900 -300 Level KA90
09:16AM 42.8000 -71.0500 236° Southwest 82 94 1,300 -300 Descending KA90
09:17AM 42.7833 -71.0500 180° South 51 59 1,400  Climbing KA90
09:18AM 42.7667 -71.0667 216° Southwest 73 84 1,400 -120 Level KA90
09:18AM 42.7636 -71.0722 233° Southwest 64 74 1,300 -480 Descending Boston Center
09:20AM 42.7469 -71.0900 218° Southwest 74 85 700 120 Descending Boston Center
09:21AM 42.7311 -71.1108 224° Southwest 76 87 1,600 660 Climbing Boston Center
09:22AM 42.7147 -71.1236 210° Southwest 70 81 2,100 120 Climbing Boston Center
09:23AM 42.6919 -71.1294 191° South 81 93 1,900 -60 Descending Boston Center
09:24AM 42.6728 -71.1319 185° South 66 76 2,000  Climbing Boston Center
09:25AM 42.6569 -71.1436 208° Southwest 65 75 2,000  Level Boston Center
09:26AM 42.6403 -71.1553 207° Southwest 65 75 2,100  Climbing Boston Center
09:27AM 42.6236 -71.1664 206° Southwest 66 76 2,000 -120 Descending Boston Center
09:27AM 42.6167 -71.1667 182° South 67 77 2,000  Level KA90
09:28AM 42.6000 -71.1667 180° South 64 74 2,000  Level KA90
09:29AM 42.5833 -71.1667 180° South 63 72 2,000  Level KA90
09:30AM 42.5500 -71.1667 180° South 67 77 2,000  Level KA90
09:31AM 42.5500 -71.1500 90° East 74 85 2,000  Level KA90
09:32AM 42.5333 -71.1333 144° Southeast 85 98 2,100  Climbing KA90
09:33AM 42.5333 -71.1000 90° East 77 89 2,000 -60 Descending KA90
09:34AM 42.5000 -71.0833 160° South 70 81 2,000  Level KA90
09:35AM 42.4833 -71.0833 180° South 68 78 2,000  Level KA90
09:36AM 42.4667 -71.0833 180° South 65 75 2,000  Level KA90
09:37AM 42.4667 -71.1000 270° West 98 113 2,000 -180 Level KA90
09:38AM 42.4500 -71.1333 236° Southwest 63 72 1,700 -180 Descending KA90
09:39AM 42.4667 -71.1667 304° West 73 84 1,700 -60 Level KA90
09:40AM 42.4667 -71.1833 270° West 87 100 1,600 -420 Descending KA90
09:41AM 42.4667 -71.2333 270° West 109 125 900 -480 Descending KA90
09:42AM 42.4667 -71.2500 270° West 113 130 700 -240 Descending KA90